Newport, AR

2:28 AM CDT on August 24, 2017 (GMT -0500)
Newport

Weather History for KM19 - January, 2013

Change the Weather History Date:

Tuesday, January 1, 2013

  Actual Average (KBVX) Record (KBVX)
Temperature  
Mean Temperature 34 °F -  
Max Temperature 36 °F 44 °F 75 °F (1952)
Min Temperature 31 °F 24 °F 5 °F (1977)
Degree Days  
Heating Degree Days 31    
Moisture  
Dew Point 34 °F    
Average Humidity 98    
Maximum Humidity 100    
Minimum Humidity 88    
Precipitation  
Precipitation 0.00 in - - ()
Sea Level Pressure  
Sea Level Pressure 30.16 in    
Wind  
Wind Speed 8 mph (North)    
Max Wind Speed 13 mph    
Max Gust Speed 83 mph    
Visibility 5 miles    
Events Fog , Rain    
Averages and records for this station are not official NWS values.
T = Trace of Precipitation, MM = Missing Value Source: NWS Daily Summary

Daily Weather History Graph

Daily Weather History Graph

Search for Another Location

Airport or City:

Trip Planner

Search our weather history database for the weather conditions in past years. The results will help you decide how hot, cold, wet, or windy it might be!

Date:

Astronomy

Jan. 01, 2013 Rise Set
Actual Time 7:14 AM CST 5:02 PM CST
Civil Twilight 6:46 AM CST 5:30 PM CST
Nautical Twilight 6:14 AM CST 6:02 PM CST
Astronomical Twilight 5:43 AM CST 6:33 PM CST
Moon 9:24 PM CST (1/1) 9:35 AM CST (1/1)
Length of Visible Light 10h 44m
Length of Day
9h 48m
Waning Gibbous, 83% of the Moon is Illuminated
Jan 1
Waning Gibbous
Jan 4
Last Quarter
Jan 11
New
Jan 18
First Quarter
Jan 26
Full

Hourly Weather History & Observations

Time (CST) Temp. Windchill Dew Point Humidity Pressure Visibility Wind Dir Wind Speed Gust Speed Precip Events Conditions
12:56 AM 34.0 °F 28.8 °F 34.0 °F 100% 30.06 in 0.5 mi NNW 5.8 mph - N/A Fog Fog
1:56 AM 34.0 °F 28.0 °F 34.0 °F 100% 30.09 in 0.5 mi NNW 6.9 mph - N/A Fog Fog
2:13 AM 33.8 °F 27.7 °F 33.8 °F 100% 30.07 in 0.2 mi North 6.9 mph - N/A Fog Fog
3:04 AM 33.8 °F 26.4 °F 33.8 °F 100% 30.08 in 0.5 mi North 9.2 mph - N/A Fog Fog
3:56 AM 34.0 °F 27.2 °F 34.0 °F 100% 30.09 in 0.5 mi North 8.1 mph - N/A Fog Fog
4:34 AM 33.8 °F 28.6 °F 33.8 °F 100% 30.09 in 0.2 mi North 5.8 mph - N/A Fog Fog
4:56 AM 34.0 °F 26.6 °F 34.0 °F 100% 30.09 in 0.2 mi NNE 9.2 mph - N/A Fog Fog
6:56 AM 34.0 °F 26.6 °F 34.0 °F 100% 30.10 in 0.5 mi North 9.2 mph - N/A Fog Fog
7:18 AM 33.8 °F 26.4 °F 33.8 °F 100% 30.11 in 0.2 mi North 9.2 mph - N/A Fog Fog
7:25 AM 33.8 °F 25.8 °F 33.8 °F 100% 30.12 in 0.2 mi North 10.4 mph - N/A Fog Fog
7:37 AM 33.8 °F 26.4 °F 33.8 °F 100% 30.13 in 0.2 mi North 9.2 mph - N/A Fog Fog
7:56 AM 34.9 °F 28.3 °F 34.9 °F 100% 30.15 in 0.2 mi North 8.1 mph - N/A Fog Fog
8:06 AM 35.6 °F 29.2 °F 35.6 °F 100% 30.14 in 0.8 mi North 8.1 mph - N/A   Overcast
8:12 AM 35.6 °F 28.6 °F 35.6 °F 100% 30.14 in 1.2 mi North 9.2 mph - N/A   Overcast
8:27 AM 35.6 °F 28.0 °F 35.6 °F 100% 30.12 in 0.8 mi North 10.4 mph - N/A   Overcast
8:35 AM 35.6 °F 27.5 °F 35.6 °F 100% 30.13 in 1.2 mi North 11.5 mph - N/A   Overcast
8:43 AM 35.6 °F 29.9 °F 35.6 °F 100% 30.12 in 2.0 mi NNE 6.9 mph - N/A   Overcast
8:56 AM 34.9 °F 28.3 °F 34.9 °F 100% 30.15 in 5.0 mi NNE 8.1 mph - N/A   Overcast
9:56 AM 36.0 °F 29.0 °F 36.0 °F 100% 30.20 in 8.0 mi North 9.2 mph - N/A   Overcast
10:25 AM 35.6 °F 28.6 °F 35.6 °F 100% 30.22 in 4.0 mi North 9.2 mph - N/A   Overcast
10:35 AM 35.6 °F 28.0 °F 35.6 °F 100% 30.21 in 1.8 mi North 10.4 mph - N/A   Overcast
10:40 AM 35.6 °F 28.6 °F 35.6 °F 100% 30.22 in 1.0 mi North 9.2 mph - N/A   Overcast
10:48 AM 35.6 °F 29.2 °F 35.6 °F 100% 30.21 in 1.5 mi NNE 8.1 mph - N/A   Overcast
10:56 AM 34.9 °F 28.3 °F 34.9 °F 100% 30.21 in 2.0 mi NNE 8.1 mph - N/A   Overcast
11:03 AM 35.6 °F 29.9 °F 35.6 °F 100% 30.20 in 1.5 mi NNE 6.9 mph - 0.00 in Rain Light Rain
11:37 AM 35.6 °F 28.0 °F 35.6 °F 100% 30.16 in 3.0 mi NE 10.4 mph - 0.00 in Rain Light Rain
11:56 AM 36.0 °F 28.5 °F 36.0 °F 100% 30.17 in 10.0 mi NE 10.4 mph 82.9 mph 0.00 in   Overcast
1:56 PM 36.0 °F 28.5 °F 34.9 °F 96% 30.14 in 10.0 mi NNE 10.4 mph - N/A   Overcast
2:56 PM 36.0 °F - 34.0 °F 93% 30.17 in 10.0 mi North - - N/A   Overcast
3:20 PM 35.6 °F 28.6 °F 35.6 °F 100% 30.16 in 10.0 mi NNE 9.2 mph - N/A   Overcast
3:48 PM 35.6 °F - 35.6 °F 100% 30.17 in 10.0 mi North - - N/A   Overcast
3:56 PM 36.0 °F 28.0 °F 34.9 °F 96% 30.17 in 10.0 mi NNE 11.5 mph - N/A   Overcast
4:40 PM 35.6 °F 28.0 °F 33.8 °F 93% 30.18 in 10.0 mi NNE 10.4 mph 26.5 mph N/A   Overcast
4:56 PM 36.0 °F 27.5 °F 34.0 °F 93% 30.19 in 10.0 mi NNE 12.7 mph 41.4 mph N/A   Overcast
5:56 PM 34.9 °F 27.7 °F 34.0 °F 97% 30.21 in 10.0 mi North 9.2 mph - N/A   Overcast
6:06 PM 35.6 °F 27.5 °F 33.8 °F 93% 30.21 in 10.0 mi North 11.5 mph - N/A   Overcast
6:56 PM 34.9 °F 28.3 °F 32.9 °F 92% 30.23 in 10.0 mi North 8.1 mph - N/A   Overcast
7:32 PM 35.6 °F 29.9 °F 33.8 °F 93% 30.23 in 10.0 mi North 6.9 mph - N/A   Overcast
7:56 PM 34.0 °F 28.0 °F 32.9 °F 96% 30.23 in 8.0 mi North 6.9 mph - N/A   Overcast
8:56 PM 34.0 °F 26.0 °F 31.1 °F 89% 30.24 in 10.0 mi North 10.4 mph - N/A   Overcast
9:56 PM 32.9 °F 24.7 °F 30.0 °F 89% 30.26 in 10.0 mi North 10.4 mph - N/A   Overcast
10:56 PM 32.0 °F 23.6 °F 29.1 °F 89% 30.25 in 10.0 mi North 10.4 mph - N/A   Overcast
11:56 PM 31.1 °F 23.1 °F 28.0 °F 88% 30.27 in 10.0 mi North 9.2 mph - N/A   Overcast